Location: Colorado Springs
(38.8340°N, 104.8210°W)
Time: 15:58:54
(UTC-06:00)

Envisat - Visible Passes

Search period start: 21 March 2019 00:00
Search period end: 31 March 2019 00:00
Orbit: 764 x 766 km, 98.2° (Epoch: 21 March)

Date Brightness Start Highest point End Pass type
(mag) Time Alt. Az. Time Alt. Az. Time Alt. Az.
21 Mar 3.7 19:55:43 10° S 20:00:42 59° W 20:05:45 10° NNW visible
22 Mar 5.9 21:00:41 10° WSW 21:03:23 14° W 21:06:06 10° WNW visible
23 Mar 4.8 20:21:48 10° SSW 20:26:20 33° W 20:30:54 10° NNW visible
24 Mar 3.3 19:44:24 10° S 19:49:29 76° WSW 19:54:35 10° NNW visible
25 Mar 5.8 20:48:35 10° SW 20:52:04 19° W 20:55:34 10° NW visible
26 Mar 4.4 20:10:17 10° S 20:15:04 42° W 20:19:53 10° NNW visible
27 Mar 3.0 19:33:12 10° SSE 19:38:16 85° ENE 19:43:22 10° NNW visible
28 Mar 5.4 20:36:43 10° SSW 20:40:45 24° W 20:44:48 10° NW visible
29 Mar 3.9 19:58:52 10° S 20:03:49 54° W 20:08:48 10° NNW visible
30 Mar 6.0 21:04:15 10° WSW 21:06:32 13° W 21:08:49 10° WNW visible
